• In Romania
  • List of Countries
  • For 7 days
  • Water Temperature
  • Satellite Maps
  • Weather Map
  • Weather Widgets
  • user-avatar
    Login

    Hourly Weather Buar

    Today, 25 February, Sunday

    Time Temperature Precipitation Wind Pressure Humidity
    00:00 +28°C° 0.1 mm 1 mps 693 mmHg 50%
    01:00 +24°C° 0 mm 0 mps 693 mmHg 54%
    02:00 +26°C° 0.1 mm 1 mps 693 mmHg 57%
    03:00 +25°C° 0.1 mm 1 mps 693 mmHg 60%
    04:00 +25°C° 0.1 mm 1 mps 693 mmHg 62%
    05:00 +25°C° 0 mm 1 mps 694 mmHg 63%
    06:00 +25°C° 0 mm 1 mps 694 mmHg 64%
    07:00 +26°C° 0 mm 1 mps 695 mmHg 62%
    08:00 +29°C° 0 mm 1 mps 695 mmHg 54%
    09:00 +31°C° 0 mm 2 mps 695 mmHg 47%
    10:00 +35°C° 0 mm 2 mps 696 mmHg 39%
    11:00 +37°C° 0 mm 2 mps 695 mmHg 34%
    12:00 +40°C° 0 mm 1 mps 695 mmHg 29%
    13:00 +42°C° 0 mm 1 mps 695 mmHg 24%
    14:00 +39°C° 0.2 mm 1 mps 694 mmHg 30%
    15:00 +35°C° 0.2 mm 1 mps 693 mmHg 36%
    16:00 +32°C° 0.2 mm 2 mps 692 mmHg 41%
    17:00 +31°C° 0.2 mm 1 mps 692 mmHg 48%
    18:00 +29°C° 0.2 mm 1 mps 691 mmHg 54%
    19:00 +28°C° 0.2 mm 1 mps 691 mmHg 60%
    20:00 +27°C° 0 mm 1 mps 692 mmHg 62%
    21:00 +27°C° 0 mm 1 mps 692 mmHg 63%
    22:00 +26°C° 0 mm 1 mps 692 mmHg 65%
    23:00 +26°C° 0 mm 1 mps 692 mmHg 66%

    Tomorrow, 26 February, Monday

    Time Temperature Precipitation Wind Pressure Humidity
    00:00 +26°C° 0 mm 1 mps 692 mmHg 67%
    01:00 +26°C° 0 mm 1 mps 693 mmHg 68%
    02:00 +25°C° 0 mm 1 mps 692 mmHg 71%
    03:00 +25°C° 0 mm 1 mps 692 mmHg 74%
    04:00 +24°C° 0 mm 1 mps 692 mmHg 77%
    05:00 +24°C° 1.8 mm 2 mps 693 mmHg 80%
    06:00 +24°C° 1.8 mm 2 mps 693 mmHg 82%
    07:00 +24°C° 1.8 mm 2 mps 694 mmHg 84%
    08:00 +26°C° 0 mm 2 mps 694 mmHg 77%
    09:00 +27°C° 0 mm 3 mps 695 mmHg 70%
    10:00 +29°C° 0 mm 3 mps 695 mmHg 62%
    11:00 +30°C° 0 mm 3 mps 695 mmHg 55%
    12:00 +33°C° 0 mm 3 mps 694 mmHg 48%
    13:00 +35°C° 0 mm 2 mps 694 mmHg 41%
    14:00 +34°C° 0.2 mm 3 mps 693 mmHg 43%
    15:00 +34°C° 0.2 mm 3 mps 693 mmHg 45%
    16:00 +33°C° 0.2 mm 4 mps 692 mmHg 47%
    17:00 +30°C° 6.3 mm 4 mps 692 mmHg 58%
    18:00 +28°C° 6.3 mm 3 mps 692 mmHg 70%
    19:00 +25°C° 6.3 mm 3 mps 692 mmHg 82%
    20:00 +25°C° 1 mm 3 mps 693 mmHg 82%
    21:00 +25°C° 1 mm 3 mps 693 mmHg 83%
    22:00 +24°C° 1 mm 3 mps 694 mmHg 83%
    23:00 +24°C° 0 mm 3 mps 694 mmHg 84%

    Day after tomorrow, 27 February, Tuesday

    Time Temperature Precipitation Wind Pressure Humidity
    00:00 +24°C° 0 mm 2 mps 694 mmHg 85%
    01:00 +24°C° 0 mm 2 mps 694 mmHg 86%
    02:00 +24°C° 0 mm 2 mps 694 mmHg 86%
    03:00 +24°C° 0 mm 2 mps 694 mmHg 87%
    04:00 +23°C° 0 mm 2 mps 694 mmHg 88%
    05:00 +23°C° 0 mm 2 mps 694 mmHg 88%
    06:00 +23°C° 0 mm 2 mps 695 mmHg 87%
    07:00 +23°C° 0 mm 2 mps 695 mmHg 86%
    08:00 +25°C° 0 mm 3 mps 695 mmHg 79%
    09:00 +26°C° 0 mm 3 mps 696 mmHg 72%
    10:00 +28°C° 0 mm 4 mps 696 mmHg 64%
    11:00 +29°C° 0 mm 3 mps 696 mmHg 58%
    12:00 +31°C° 0 mm 3 mps 695 mmHg 51%
    13:00 +34°C° 0 mm 3 mps 694 mmHg 44%
    14:00 +34°C° 0 mm 3 mps 694 mmHg 42%
    15:00 +34°C° 0 mm 2 mps 693 mmHg 40%
    16:00 +34°C° 0 mm 2 mps 692 mmHg 38%
    17:00 +32°C° 0 mm 2 mps 692 mmHg 43%
    18:00 +30°C° 0 mm 2 mps 693 mmHg 49%
    19:00 +28°C° 0 mm 2 mps 693 mmHg 54%
    20:00 +27°C° 0 mm 2 mps 693 mmHg 57%
    21:00 +27°C° 0 mm 1 mps 694 mmHg 61%
    22:00 +26°C° 0 mm 1 mps 694 mmHg 65%
    23:00 +25°C° 0 mm 1 mps 694 mmHg 68%

    28 February, Wednesday

    Time Temperature Precipitation Wind Pressure Humidity
    00:00 +25°C° 0 mm 1 mps 694 mmHg 71%
    01:00 +24°C° 0 mm 1 mps 693 mmHg 74%
    02:00 +24°C° 0.1 mm 1 mps 693 mmHg 76%
    03:00 +24°C° 0.1 mm 1 mps 693 mmHg 78%
    04:00 +23°C° 0.1 mm 1 mps 693 mmHg 81%
    05:00 +23°C° 0.1 mm 2 mps 694 mmHg 81%
    06:00 +23°C° 0.1 mm 2 mps 694 mmHg 81%
    07:00 +24°C° 0.1 mm 2 mps 695 mmHg 81%
    08:00 +26°C° 0 mm 2 mps 695 mmHg 71%
    09:00 +28°C° 0 mm 2 mps 696 mmHg 62%
    10:00 +31°C° 0 mm 3 mps 696 mmHg 52%
    11:00 +32°C° 0 mm 2 mps 696 mmHg 46%
    12:00 +35°C° 0 mm 2 mps 695 mmHg 40%
    13:00 +36°C° 0 mm 2 mps 694 mmHg 34%
    14:00 +36°C° 0 mm 2 mps 693 mmHg 34%
    15:00 +36°C° 0 mm 2 mps 693 mmHg 33%
    16:00 +36°C° 0 mm 2 mps 692 mmHg 32%
    17:00 +34°C° 0 mm 2 mps 692 mmHg 37%
    18:00 +31°C° 0 mm 2 mps 692 mmHg 42%
    19:00 +29°C° 0 mm 2 mps 692 mmHg 47%
    20:00 +28°C° 0.1 mm 2 mps 693 mmHg 52%
    21:00 +28°C° 0.1 mm 1 mps 693 mmHg 56%
    22:00 +27°C° 0.1 mm 1 mps 693 mmHg 61%
    23:00 +26°C° 0 mm 1 mps 693 mmHg 65%

    1 March, Thursday

    Time Temperature Precipitation Wind Pressure Humidity
    00:00 +25°C° 0 mm 1 mps 693 mmHg 68%
    01:00 +25°C° 0 mm 2 mps 693 mmHg 72%
    02:00 +24°C° 0.1 mm 2 mps 693 mmHg 76%
    03:00 +24°C° 0.1 mm 2 mps 693 mmHg 79%
    04:00 +23°C° 0.1 mm 2 mps 693 mmHg 82%
    05:00 +24°C° 0 mm 2 mps 694 mmHg 83%
    06:00 +24°C° 0 mm 2 mps 694 mmHg 83%
    07:00 +24°C° 0 mm 2 mps 695 mmHg 83%
    08:00 +26°C° 0 mm 2 mps 696 mmHg 73%
    09:00 +28°C° 0 mm 3 mps 696 mmHg 64%
    10:00 +30°C° 0 mm 3 mps 697 mmHg 54%
    11:00 +33°C° 0 mm 3 mps 696 mmHg 45%
    12:00 +35°C° 0 mm 3 mps 695 mmHg 36%
    13:00 +37°C° 0 mm 2 mps 694 mmHg 27%
    14:00 +37°C° 0 mm 2 mps 694 mmHg 26%
    15:00 +37°C° 0 mm 2 mps 693 mmHg 24%
    16:00 +36°C° 0 mm 1 mps 692 mmHg 23%
    17:00 +34°C° 0 mm 1 mps 692 mmHg 27%
    18:00 +32°C° 0 mm 2 mps 692 mmHg 32%
    19:00 +29°C° 0 mm 2 mps 692 mmHg 36%
    20:00 +28°C° 0 mm 2 mps 693 mmHg 43%
    21:00 +27°C° 0 mm 2 mps 693 mmHg 49%
    22:00 +26°C° 0 mm 2 mps 694 mmHg 55%
    23:00 +26°C° 0 mm 2 mps 694 mmHg 61%

    2 March, Friday

    Time Temperature Precipitation Wind Pressure Humidity
    00:00 +25°C° 0 mm 2 mps 693 mmHg 67%
    01:00 +24°C° 0 mm 2 mps 693 mmHg 73%
    02:00 +24°C° 0 mm 2 mps 693 mmHg 75%
    03:00 +24°C° 0 mm 2 mps 693 mmHg 77%
    04:00 +24°C° 0 mm 2 mps 693 mmHg 79%
    05:00 +24°C° 0 mm 2 mps 694 mmHg 78%
    06:00 +24°C° 0 mm 2 mps 694 mmHg 78%
    07:00 +24°C° 0 mm 2 mps 695 mmHg 78%
    08:00 +25°C° 0 mm 3 mps 695 mmHg 72%
    09:00 +27°C° 0 mm 3 mps 695 mmHg 66%
    10:00 +28°C° 0 mm 3 mps 696 mmHg 60%
    11:00 +30°C° 0 mm 2 mps 695 mmHg 50%
    12:00 +34°C° 0 mm 2 mps 694 mmHg 40%
    13:00 +36°C° 0 mm 2 mps 694 mmHg 30%
    14:00 +36°C° 0 mm 2 mps 693 mmHg 29%
    15:00 +36°C° 0 mm 2 mps 693 mmHg 27%
    16:00 +37°C° 0 mm 2 mps 692 mmHg 25%
    17:00 +34°C° 0 mm 2 mps 692 mmHg 30%
    18:00 +31°C° 0 mm 2 mps 692 mmHg 34%
    19:00 +29°C° 0 mm 2 mps 693 mmHg 39%
    20:00 +28°C° 0 mm 2 mps 693 mmHg 43%
    21:00 +27°C° 0 mm 1 mps 693 mmHg 46%
    22:00 +26°C° 0 mm 1 mps 694 mmHg 50%
    23:00 +26°C° 0 mm 1 mps 693 mmHg 52%
    Show more